Location: ???????
(55.4362°N, 38.1183°E)
Time: 19:06:48
(UTC+00:00)

Cosmos 1932 - Pass Details

Date: 25 October 2021
Orbit: 943 x 987 km, 65.0° (Epoch: 29 November)

Event Time Altitude Azimuth Distance (km) Brightness Sun altitude
Rises 18:02:39 0° 306° (NW) 3,622 8.6 -33.5°
Reaches altitude 10° 18:07:05 10° 277° (W) 2,677 7.5 -34.1°
Maximum altitude 18:09:11 12° 257° (WSW) 2,547 7.1 -34.3°
Drops below altitude 10° 18:11:16 10° 237° (WSW) 2,679 7.0 -34.6°
Enters shadow 18:13:53 - 218° (SW) 3,156 7.2 -34.9°
